Cairns, Australia

2:43 AM AEST on February 20, 2018 (GMT +1000)
Cairns International

Weather History for YBCS - November, 2014

Change the Weather History Date:

Wednesday, November 26, 2014

  Actual Average Record
Temperature  
Mean Temperature 82 °F -  
Max Temperature 91 °F 88 °F 91 °F (2008)
Min Temperature 74 °F 74 °F 68 °F (1996)
Cooling Degree Days 18    
Growing Degree Days 32 (Base 50)    
Moisture  
Dew Point 69 °F    
Average Humidity 66    
Maximum Humidity 89    
Minimum Humidity 36    
Precipitation  
Precipitation 0.20 in 0.23 in - ()
Sea Level Pressure  
Sea Level Pressure 29.85 in    
Wind  
Wind Speed 9 mph ()    
Max Wind Speed 18 mph    
Max Gust Speed -    
Visibility 6.6 miles    
Events Rain    
Averages and records for this station are not official NWS values.
T = Trace of Precipitation, MM = Missing Value Source: Averaged Metar Reports

Daily Weather History Graph

Daily Weather History Graph

Search for Another Location

Airport or City:

Trip Planner

Search our weather history database for the weather conditions in past years. The results will help you decide how hot, cold, wet, or windy it might be!

Date:

Astronomy

Nov. 26, 2014 Rise Set
Actual Time 5:33 AM AEST 6:34 PM AEST
Civil Twilight 5:10 AM AEST 6:58 PM AEST
Nautical Twilight 4:42 AM AEST 7:25 PM AEST
Astronomical Twilight 4:14 AM AEST 7:54 PM AEST
Moon 8:51 AM AEST (11/26) 10:01 PM AEST (11/26)
Length of Visible Light 13h 47m
Length of Day
13h 00m
Waxing Crescent, 15% of the Moon is Illuminated
Nov 26
Waxing Crescent
Nov 29
First Quarter
Dec 6
Full
Dec 14
Last Quarter
Dec 22
New

Hourly Weather History & Observations

Time (AEST) Temp. Heat Index Dew Point Humidity Pressure Visibility Wind Dir Wind Speed Gust Speed Precip Events Conditions
12:00 AM 78 °F - 69 °F 66% 29.87 in - South 9.2 mph - -  
12:00 AM 78.8 °F - 68.0 °F 69% 29.86 in 6.2 mi South 9.2 mph - N/A   Scattered Clouds
12:30 AM 77.0 °F - 68.0 °F 74% 29.83 in 6.2 mi South 9.2 mph - N/A   Partly Cloudy
1:00 AM 78 °F - 68 °F 63% 29.85 in - South 8.1 mph - -  
1:00 AM 78.8 °F - 68.0 °F 69% 29.83 in 6.2 mi South 8.1 mph - N/A   Partly Cloudy
1:30 AM 77.0 °F - 68.0 °F 74% 29.83 in 6.2 mi SE 8.1 mph - N/A   Partly Cloudy
2:00 AM 77.0 °F - 68.0 °F 74% 29.83 in 6.2 mi South 9.2 mph - N/A   Partly Cloudy
2:30 AM 77.0 °F - 68.0 °F 74% 29.80 in 6.2 mi SSE 8.1 mph - N/A   Partly Cloudy
3:00 AM 75 °F - 68 °F 72% 29.82 in - SE 9.2 mph - -  
3:00 AM 75.2 °F - 68.0 °F 78% 29.80 in 6.2 mi SE 9.2 mph - N/A   Partly Cloudy
3:30 AM 77.0 °F - 68.0 °F 74% 29.80 in 6.2 mi South 6.9 mph - N/A   Scattered Clouds
4:00 AM 76 °F - 68 °F 70% 29.83 in - SSE 6.9 mph - -  
4:00 AM 75.2 °F - 68.0 °F 78% 29.80 in 6.2 mi SSE 6.9 mph - N/A   Scattered Clouds
4:30 AM 75.2 °F - 68.0 °F 78% 29.80 in 6.2 mi SE 5.8 mph - N/A   Partly Cloudy
5:00 AM 75.2 °F - 68.0 °F 78% 29.83 in 6.2 mi SSE 8.1 mph - N/A   Scattered Clouds
5:30 AM 77.0 °F - 69.8 °F 78% 29.83 in 6.2 mi South 6.9 mph - N/A   Partly Cloudy
6:00 AM 75 °F - 68 °F 74% 29.84 in 19 mi ESE 8.1 mph - -   Scattered Clouds
6:00 AM 75.2 °F - 68.0 °F 78% 29.83 in 6.2 mi ESE 8.1 mph - N/A   Partly Cloudy
6:30 AM 77.0 °F - 69.8 °F 78% 29.83 in 6.2 mi SE 8.1 mph - N/A Rain Light Rain Showers
7:00 AM 77 °F - 70 °F 72% 29.87 in - SE 11.5 mph - -  
7:00 AM 77.0 °F - 69.8 °F 78% 29.86 in 6.2 mi SE 11.5 mph - N/A   Scattered Clouds
7:30 AM 78.8 °F - 69.8 °F 74% 29.86 in 6.2 mi SSE 10.4 mph - N/A Rain Light Rain Showers
8:00 AM 80.6 °F 83.9 °F 69.8 °F 70% 29.86 in 6.2 mi South 11.5 mph - N/A   Scattered Clouds
8:30 AM 82.4 °F 87.2 °F 71.6 °F 70% 29.86 in 6.2 mi South 9.2 mph - N/A Rain Light Rain Showers
9:00 AM 81 °F - 72 °F 67% 29.89 in 6 mi SE 13.8 mph - - Rain Light Rain Showers
9:00 AM 80.6 °F 84.6 °F 71.6 °F 74% 29.89 in 6.2 mi SE 13.8 mph - N/A Rain Light Rain Showers
9:30 AM 77.0 °F - 73.4 °F 89% 29.89 in 5.6 mi South 9.2 mph - N/A Rain Light Rain Showers
10:00 AM 80 °F - 75 °F 81% 29.90 in - South 9.2 mph - -  
10:00 AM 80.6 °F 86.2 °F 75.2 °F 84% 29.89 in 6.2 mi South 9.2 mph - N/A Rain Light Rain Showers
10:30 AM 82.4 °F 88.2 °F 73.4 °F 74% 29.89 in 6.2 mi South 10.4 mph - N/A   Scattered Clouds
11:00 AM 84.2 °F 88.4 °F 69.8 °F 62% 29.89 in 6.2 mi SSE 11.5 mph - N/A   Mostly Cloudy
11:30 AM 86.0 °F 91.8 °F 71.6 °F 62% 29.86 in 5.6 mi East 12.7 mph - N/A   Scattered Clouds
12:00 PM 88 °F - 70 °F 47% 29.87 in 9 mi ESE 16.1 mph - -   Haze
12:00 PM 87.8 °F 92.6 °F 69.8 °F 55% 29.86 in 6.2 mi ESE 16.1 mph - N/A   Partly Cloudy
12:30 PM 87.8 °F 91.4 °F 68.0 °F 52% 29.86 in 6.2 mi ESE 17.3 mph - N/A   Partly Cloudy
1:00 PM 89 °F - 67 °F 39% 29.86 in - ESE 17.3 mph - -  
1:00 PM 89.6 °F 93.4 °F 68.0 °F 49% 29.83 in 6.2 mi ESE 17.3 mph - N/A   Partly Cloudy
1:30 PM 91.4 °F 94.0 °F 66.2 °F 43% 29.83 in 6.2 mi East 18.4 mph - N/A   Partly Cloudy
2:00 PM 87.8 °F 89.4 °F 64.4 °F 46% 29.83 in 6.2 mi ESE 16.1 mph - N/A   Partly Cloudy
2:30 PM 89.6 °F 92.2 °F 66.2 °F 46% 29.83 in 6.2 mi East 12.7 mph - N/A   Partly Cloudy
3:00 PM 89 °F - 66 °F 36% 29.83 in 16 mi East 13.8 mph - -   Partly Cloudy
3:00 PM 89.6 °F 92.2 °F 66.2 °F 46% 29.83 in 6.2 mi East 13.8 mph - N/A   Partly Cloudy
3:30 PM 87.8 °F 89.4 °F 64.4 °F 46% 29.83 in 6.2 mi East 13.8 mph - N/A   Partly Cloudy
4:00 PM 88 °F - 65 °F 37% 29.84 in - East 12.7 mph - -  
4:00 PM 87.8 °F 89.4 °F 64.4 °F 46% 29.83 in 6.2 mi East 12.7 mph - N/A   Partly Cloudy
4:30 PM 87.8 °F 88.5 °F 62.6 °F 43% 29.83 in 6.2 mi East 11.5 mph - N/A   Partly Cloudy
5:00 PM 86.0 °F 88.2 °F 66.2 °F 51% 29.83 in 6.2 mi ESE 10.4 mph - N/A   Partly Cloudy
5:30 PM 84.2 °F 86.6 °F 66.2 °F 55% 29.83 in 6.2 mi ESE 10.4 mph - N/A   Partly Cloudy
6:00 PM 84 °F - 66 °F 45% 29.85 in - ESE 10.4 mph - -  
6:00 PM 84.2 °F 86.6 °F 66.2 °F 55% 29.83 in 6.2 mi ESE 10.4 mph - N/A   Partly Cloudy
6:30 PM 82.4 °F 85.4 °F 68.0 °F 62% 29.83 in 6.2 mi ESE 9.2 mph - N/A   Partly Cloudy
7:00 PM 81 °F - 68 °F 57% 29.87 in - ESE 6.9 mph - -  
7:00 PM 80.6 °F 83.2 °F 68.0 °F 65% 29.86 in 6.2 mi ESE 6.9 mph - N/A   Partly Cloudy
7:30 PM 80.6 °F 83.9 °F 69.8 °F 70% 29.86 in 6.2 mi SSE 8.1 mph - N/A   Partly Cloudy
8:00 PM 80.6 °F 83.9 °F 69.8 °F 70% 29.86 in 6.2 mi SSE 9.2 mph - N/A   Partly Cloudy
8:30 PM 80.6 °F 84.6 °F 71.6 °F 74% 29.86 in 6.2 mi SSE 15.0 mph - N/A   Partly Cloudy
9:00 PM 79 °F - 72 °F 73% 29.88 in - SSE 10.4 mph - -  
9:00 PM 78.8 °F - 71.6 °F 78% 29.89 in 6.2 mi SSE 10.4 mph - N/A   Partly Cloudy
9:30 PM 78.8 °F - 71.6 °F 78% 29.89 in 6.2 mi South 9.2 mph - N/A   Partly Cloudy
10:00 PM 79 °F - 69 °F 63% 29.91 in - South 10.4 mph - -  
10:00 PM 78.8 °F - 68.0 °F 69% 29.89 in 6.2 mi South 10.4 mph - N/A   Partly Cloudy
10:30 PM 78.8 °F - 69.8 °F 74% 29.89 in 6.2 mi South 8.1 mph - N/A   Partly Cloudy
11:00 PM 78.8 °F - 69.8 °F 74% 29.89 in 6.2 mi SSE 10.4 mph - N/A   Scattered Clouds
11:20 PM 75.2 °F - 71.6 °F 89% 29.89 in 5.0 mi SE 9.2 mph - N/A Rain Light Rain Showers
11:30 PM 75.2 °F - 71.6 °F 89% 29.89 in 4.3 mi South 8.1 mph - N/A Rain Rain Showers